Regional Weather Roundup
Issued by NWS

Home | Current Version | Previous Version | Text Only | Print | Product List | Glossary Off
Versions: 1 2 3 4 5 6 7 8 9 10 11 12 13 14 15 16 17 18 19 20 21 22 23 24 25 26 27 28 29 30 31 32 33 34 35 36 37 38 39 40 41 42 43 44 45 46 47 48 49 50

000
ASUS45 KBOU 181107
RWRCO

WEATHER ROUNDUP FOR COLORADO
NATIONAL WEATHER SERVICE DENVER/BOULDER CO
400 AM MST THU DEC 18 2014

NOTE: "FAIR" INDICATES FEW OR NO CLOUDS BELOW 12000 FEET WITH NO
SIGNIFICANT WEATHER AND/OR OBSTRUCTIONS TO VISIBILITY.

COZ001>005-013-030-031-181200-
...NORTHWEST COLORADO...

CITY           SKY/WX    TMP DP  RH WIND       PRES   REMARKS
CRAIG          CLOUDY    26  24  92 W3        30.08S FOG
HAYDEN         CLOUDY    23  19  86 SW6       30.06S WCI  16
MEEKER         CLOUDY    26  24  92 CALM      30.06F
MOUNT WERNER   NOT AVBL
STEAMBOAT SPGS CLOUDY    24  23  97 CALM      30.05S
WALDEN         CLOUDY     5   1  85 E3        30.02S VSB<1/4
$$

COZ006>008-011-181200-
...WEST CENTRAL VALLEYS...

CITY           SKY/WX    TMP DP  RH WIND       PRES   REMARKS
GRAND JUNCTION LGT SNOW  32  32 100 N7        30.08S FOG     WCI  26
MONTROSE       LGT SNOW  32  32 100 CALM      30.09S FOG
EAGLE          CLOUDY    27  25  93 CALM      30.07F
RIFLE          LGT SNOW  32  31  96 CALM      30.06S FOG
DELTA          LGT RAIN  36  35  98 CALM      30.08S
NUCLA          LGT SNOW  32  32 100 CALM      30.11F
$$

COZ017>023-064>068-181200-
...SOUTHWEST COLORADO...

CITY           SKY/WX    TMP DP  RH WIND       PRES   REMARKS
DURANGO        PTCLDY    27  25  92 CALM      30.08S
CORTEZ         CLOUDY    32  32 100 NE3       30.10S
PAGOSA SPRINGS LGT SNOW  29  29  98 CALM      30.07S
TELLURIDE      LGT SNOW N/A N/A N/A S3        30.06S
WOLF CREEK PAS HVY SNOW  12  12 100 MISG      30.02F VSB 1/4
$$

COZ009-010-012-014-032>034-037-058>063-181200-
...CENTRAL COLORADO...

CITY           SKY/WX    TMP DP  RH WIND       PRES   REMARKS
ASPEN          LGT SNOW  25  20  81 S6        30.02S WCI  18
BUENA VISTA    PTCLDY    17  13  84 CALM      30.02S
COPPER MTN     LGT SNOW  19  14  79 W16       29.99S WCI   5
BERTHOUD PASS  CLOUDY    10   3  72 MISG      29.97S
COTTONWOOD PAS MOCLDY    27  18  69 N6        29.99F WCI  20
GUNNISON       MOCLDY    21  18  86 CALM      30.07S
KREMMLING      FLURRIES  18  14  86 CALM      30.06S
LEADVILLE      CLOUDY    11   7  84 NE7       29.98F WCI   0
MONARCH PASS   CLOUDY    14  12  92 MISG      30.09F
SALIDA         PTCLDY    25  20  83 N5        30.09S WCI  19
SUNLIGHT       LGT SNOW N/A N/A N/A CALM      30.03S
WILKERSON PASS MOCLDY    18  14  86 W6        29.99F WCI   9
$$

COZ069>075-181200-
...SAN LUIS VALLEY/SANGRE DE CRISTO MOUNTAINS...

CITY           SKY/WX    TMP DP  RH WIND       PRES   REMARKS
ALAMOSA        CLOUDY    24  22  91 CALM      30.05S
LA VETA PASS   CLOUDY    21  18  86 MISG      29.99S FOG
SAGUACHE       FLURRIES  21  19  93 W3        30.05S
$$

COZ035-036-038>040-181200-
...NORTHERN COLORADO FRONT RANGE...

CITY           SKY/WX    TMP DP  RH WIND       PRES   REMARKS
DENVER INTL AP MOCLDY    26  23  88 SW6       29.97F WCI  19
DMNS CITY PARK   N/A     26  24  92 SE3       29.98S
AURORA         PTCLDY    28  28  99 S6        29.97F WCI  22
FRONT RANGE AP MOCLDY    32  28  86 SW5       29.98F WCI  27
ERIE MUNI ARPT   N/A     19  18  95 CALM      29.99S
BOULDER MUN AP PTCLDY    28  27  93 SW3       29.97F
CENTENNIAL     MOCLDY    28  26  92 S7        29.97F WCI  21
BROOMFIELD     PTCLDY    32  27  80 CALM      29.97F
FORT COLLINS   PTCLDY    21  18  86 CALM      30.00S
LONGMONT       PTCLDY    21  18  90 CALM      30.01S
$$

COZ041-046-047-076>085-087-088-181200-
...PIKES PEAK/PALMER DIVIDE AND SOUTHERN FOOTHILLS...

CITY           SKY/WX    TMP DP  RH WIND       PRES   REMARKS
COLO. SPRINGS  MOCLDY    28  26  92 N3        29.99S FOG
A. F. ACADEMY  CLOUDY    31  31 100 S2        29.98S FOG
ELLICOTT       NOT AVBL
FALCON         MOCLDY    24  23  96 W6        29.98F WCI  17
FORT CARSON    FOG       29  28  99 NW7       29.98S VSB 1/2 WCI  21
LIMON          MOCLDY    26  22  84 NW6       29.99S WCI  19
MONUMENT HILL  PTCLDY    23  23 100 SW5       29.96F WCI  17
TRINIDAD       PTCLDY    25  20  81 SW12      30.00S WCI  14
$$

COZ042>045-048>051-090-091-181200-
...NORTHEAST COLORADO...

CITY           SKY/WX    TMP DP  RH WIND       PRES   REMARKS
GREELEY ARPT   PTCLDY    16   9  73 NW3       29.99S
AKRON          MOCLDY    20  18  92 W13       29.98S FOG     WCI   7
BURLINGTON     FOG       25  22  88 SW5       30.00S VSB 1/2 WCI  19
WRAY           CLOUDY   N/A N/A N/A W3        30.03S
STERLING       MOCLDY    14  12  92 SW5       30.01R WCI   6
HOLYOKE        NOT AVBL
FORT MORGAN    MOCLDY    23  19  85 NW14      30.00S WCI  11
$$

COZ086-089-092>099-181200-
...SOUTHEAST COLORADO...

CITY           SKY/WX    TMP DP  RH WIND       PRES   REMARKS
PUEBLO         NOT AVBL
LA JUNTA       PTCLDY    25  23  92 SW10      30.02F WCI  15
LAMAR          CLOUDY    29  28  96 CALM      30.02F FOG
SPRINGFIELD      N/A     26  25  96 N13       30.00F WCI  15
$$



USA.gov is the U.S. government's official web portal to all federal, state and local government web resources and services.